Regional Weather Roundup
Issued by NWS Goodland, KS

Home | Current Version | Previous Version | Graphics & Text | Print | Product List | Glossary On
Versions: 1 2 3 4 5 6 7 8 9 10 11 12 13 14 15 16 17 18 19 20 21 22 23 24 25 26 27 28 29 30 31 32 33 34 35 36 37 38 39 40 41 42 43 44 45 46 47 48 49 50
000
ASUS43 KGLD 221708
RWRGLD

GOODLAND FORECAST AREA HOURLY WEATHER ROUNDUP
NATIONAL WEATHER SERVICE GOODLAND KS
1100 AM MDT FRI AUG 22 2014

...OFFICIAL OBSERVATIONS...

CITY           SKY/WX    TMP DP  RH WIND       PRES   REMARKS
GOODLAND KS    MOSUNNY   83  59  44 NE17G24   30.06S
HILL CITY KS   MOSUNNY   88  68  51 NE14      29.97F
IMPERIAL NEB   CLOUDY    74  58  57 N10       30.07R
MCCOOK NEB     MOSUNNY   87  58  37 NE17      30.00R
AKRON CO       CLOUDY    71  57  61 N12       30.13R
BURLINGTON CO  MOSUNNY   79  56  45 NE16G25   30.09S
LIMON CO       PTSUNNY   74  57  55 NE15      30.17R
$$

...UNOFFICIAL OBSERVATIONS...

CITY           SKY/WX    TMP DP  RH WIND       PRES   REMARKS
COLBY KS       MOSUNNY   84  72  65 N20       30.03S
LENORA KS        N/A     83  32  16 CALM        N/A
NORTON KS      SUNNY     88  63  42 NE17      29.97F
SHARON SPRINGS   N/A     83  69  62 E16G25      N/A
WAKEENEY KS      N/A     84  68  58 MISG        N/A
KIT CARSON CO    N/A     78  58  50 MISG        N/A
YUMA CO          N/A     74  58  57 N12         N/A
$$



USA.gov is the U.S. government's official web portal to all federal, state and local government web resources and services.